NOAA 16 DEB

Satellite information

Favourite Embed

Satellite Type and Status

DEBRISIN ORBIT

Key statistics

Satellite NOAA 16 DEB at a glance.

Uptime

9110

Days in orbit

Revolutions

≈ 14.3

Per day

Orbit

SSO

Sun Synchronous Orbit

Inclination

99.0

Latest

Satellite identification and parameters

Extended collection of information and parameters for NOAA 16 DEB.

Object identification

Identified? True

Debris? True

Object name: NOAA 16 DEB

International designator: 2000-055EU

Object number (NORAD): 41244

Object ID (CCSDS): 41244

Country: UNITED STATES OF AMERICA (US)

Current information (Y/N): Y

RCS size: SMALL

Orbital parameters

Period: 100.414 minutes

Inclination: 99.0293 deg

SMA: 7156.33 km

Apoapsis: 786.5 km

Periapsis: 769.889 km

RAAN: 38.5615 deg

Eccentricy: 0.00116061

Argument of periapsis: 118.6217 deg

Mean anomaly: 241.6135 deg

Mean motion: 14.34059788 rev/day

Mean motion (dot): 0.00008122 rev/day2

B* drag term: 0.0029174024 1/REarth

Two-line elements (TLE)

Creation date: Aug. 31, 2025, 2:26 a.m.

Reference frame: TEME

Reference center: EARTH

Epoch: Aug. 30, 2025, 9:01 a.m. UTC

TLE line 0: 0 NOAA 16 DEB

TLE line 1: 1 41244U 00055EU 25242.37630998 .00008122 00000-0 29174-2 0 9993

TLE line 2: 2 41244 99.0293 38.5615 0011606 118.6217 241.6135 14.34059788499561

Live tracking on map

Real-time ground track for satellite NOAA 16 DEB.

In-orbit conjunctions

A list of the most updated potential collisions computed for object NOAA 16 DEB.

Target Orbit TCA Probability of collision Miss distance Type
COSMOS 841 LEO 2025-08-08 16:41:55 0.0001924096 709.0 (m) PAYLOAD
CZ-6A DEB LEO 2025-01-19 22:03:46 0.0002119947 580.0 (m) DEBRIS
CZ-6A DEB LEO 2024-11-08 13:27:20 0.0002288131 923.0 (m) DEBRIS

Associated space launch

The NOAA K, L and M POES satellites begin the fifth generation of improved environmental monitoring in support of NOAA missions. The instrument payload has significant improvements and additions/deletions. The instrument changes have effected the spacecraft subsystems and data formats.

NOAA 16 DEB was lifted into orbit during the mission ‘Titan II SLV | NOAA 16’, on board a Titan II SLV space rocket.

The launch took place on Sept. 21, 2000, 10:22 a.m. from Space Launch Complex 4W.

For more information about the launch, click the button.

Launch to space Titan II SLV | NOAA 16
Titan II SLV | NOAA 16

Agency: N/A

Status: Launch Successful

Launch date: Sept. 21, 2000, 10:22 a.m. UTC

Rocket: Titan II SLV

Launch pad: Space Launch Complex 4W

Location: Vandenberg SFB, CA, USA

...

Latest news about this satellite

There are no fresh news available about this satellite. Check back as we update our databases every day.


Newsletter sign-up

Weekly statistics, charts and insights to help you stay on top of the space industry.